Ashtabula, OH

8:11 PM EDT on March 30, 2017 (GMT -0400)
Ashtabula County

Weather History for KHZY - November, 2012

Change the Weather History Date:

Tuesday, November 27, 2012

  Actual Average (KGKJ) Record (KGKJ)
Temperature  
Mean Temperature 31 °F -  
Max Temperature 35 °F 47 °F 63 °F (1984)
Min Temperature 25 °F 30 °F 10 °F (1950)
Degree Days  
Heating Degree Days 34    
Moisture  
Dew Point 22 °F    
Average Humidity 68    
Maximum Humidity 85    
Minimum Humidity 54    
Precipitation  
Precipitation 0.00 in - - ()
Sea Level Pressure  
Sea Level Pressure 30.30 in    
Wind  
Wind Speed 2 mph (West)    
Max Wind Speed 7 mph    
Max Gust Speed -    
Visibility 10 miles    
Events Snow    
Averages and records for this station are not official NWS values.
T = Trace of Precipitation, MM = Missing Value Source: NWS Daily Summary

Daily Weather History Graph

Daily Weather History Graph

Search for Another Location

Airport or City:

Trip Planner

Search our weather history database for the weather conditions in past years. The results will help you decide how hot, cold, wet, or windy it might be!

Date:

Astronomy

Nov. 27, 2012 Rise Set
Actual Time 7:26 AM EST 4:54 PM EST
Civil Twilight 6:56 AM EST 5:24 PM EST
Nautical Twilight 6:21 AM EST 5:59 PM EST
Astronomical Twilight 5:48 AM EST 6:32 PM EST
Moon 4:24 PM EST (11/27) 6:30 AM EST (11/27)
Length of Visible Light 10h 28m
Length of Day
9h 27m
Waxing Gibbous, 99% of the Moon is Illuminated
Nov 27
Waxing Gibbous
Nov 28
Full
Dec 6
Last Quarter
Dec 13
New
Dec 20
First Quarter

Hourly Weather History & Observations

Time (EST) Temp. Windchill Dew Point Humidity Pressure Visibility Wind Dir Wind Speed Gust Speed Precip Events Conditions
12:53 AM 34.0 °F - 24.1 °F 67% 30.27 in 10.0 mi Calm Calm - N/A   Overcast
1:53 AM 33.1 °F - 24.1 °F 70% 30.27 in 10.0 mi Calm Calm - N/A   Overcast
2:53 AM 33.1 °F - 24.1 °F 70% 30.28 in 10.0 mi Calm Calm - N/A   Overcast
3:53 AM 33.1 °F - 23.0 °F 66% 30.26 in 10.0 mi Calm Calm - N/A   Overcast
4:53 AM 30.9 °F 27.5 °F 25.0 °F 79% 30.26 in 5.0 mi NW 3.5 mph - 0.00 in Snow Light Snow
5:53 AM 30.0 °F - 26.1 °F 85% 30.27 in 9.0 mi Calm Calm - 0.00 in   Overcast
6:53 AM 30.0 °F - 26.1 °F 85% 30.28 in 10.0 mi Calm Calm - 0.00 in   Overcast
7:53 AM 30.0 °F 26.5 °F 26.1 °F 85% 30.31 in 10.0 mi WSW 3.5 mph - N/A   Overcast
8:53 AM 32.0 °F 28.7 °F 23.0 °F 69% 30.33 in 10.0 mi WNW 3.5 mph - N/A   Overcast
9:53 AM 33.1 °F 27.7 °F 21.0 °F 61% 30.34 in 10.0 mi NW 5.8 mph - N/A   Overcast
10:53 AM 35.1 °F 30.1 °F 21.0 °F 57% 30.34 in 10.0 mi NW 5.8 mph - N/A   Overcast
11:53 AM 35.1 °F 31.0 °F 19.9 °F 54% 30.33 in 10.0 mi NW 4.6 mph - N/A   Overcast
12:53 PM 35.1 °F 31.0 °F 19.9 °F 54% 30.31 in 10.0 mi WSW 4.6 mph - N/A   Overcast
1:53 PM 35.1 °F 29.3 °F 19.9 °F 54% 30.31 in 10.0 mi WNW 6.9 mph - N/A   Overcast
2:53 PM 35.1 °F 29.3 °F 21.0 °F 57% 30.30 in 10.0 mi WNW 6.9 mph - N/A   Mostly Cloudy
3:53 PM 34.0 °F - 19.9 °F 56% 30.29 in 10.0 mi Calm Calm - N/A   Overcast
4:53 PM 32.0 °F - 19.9 °F 61% 30.30 in 10.0 mi Calm Calm - N/A   Mostly Cloudy
5:53 PM 30.0 °F 25.2 °F 19.0 °F 64% 30.31 in 10.0 mi West 4.6 mph - N/A   Scattered Clouds
6:53 PM 30.0 °F - 19.0 °F 64% 30.32 in 10.0 mi Calm Calm - N/A   Clear
7:53 PM 27.0 °F - 19.0 °F 72% 30.31 in 10.0 mi Calm Calm - N/A   Clear
8:53 PM 27.0 °F - 19.9 °F 75% 30.32 in 10.0 mi Calm Calm - N/A   Mostly Cloudy
9:53 PM 28.0 °F 24.2 °F 19.9 °F 72% 30.31 in 10.0 mi South 3.5 mph - N/A   Overcast
10:53 PM 27.0 °F 21.6 °F 19.0 °F 72% 30.31 in 10.0 mi SSW 4.6 mph - N/A   Clear
11:53 PM 25.0 °F 20.7 °F 18.0 °F 75% 30.30 in 10.0 mi South 3.5 mph - N/A   Mostly Cloudy